COSMOS 2532

Satellite information

Favourite Embed

Satellite Type and Status

PAYLOADIN ORBIT

Key statistics

Satellite COSMOS 2532 at a glance.

Uptime

2356

Days in orbit

Revolutions

≈ 12.4

Per day

Orbit

LEO

Low Earth Orbit

Inclination

82.5

Latest

Satellite identification and parameters

Extended collection of information and parameters for COSMOS 2532.

Object identification

Identified? True

Debris? False

Object name: COSMOS 2532

International designator: 2018-097C

Object number (NORAD): 43753

Object ID (CCSDS): 43753

Country: COMMONWEALTH OF INDEPENDENT STATES (CIS)

Current information (Y/N): Y

RCS size: LARGE

Orbital parameters

Period: 115.862 minutes

Inclination: 82.51 deg

SMA: 7872.649 km

Apoapsis: 1508.03 km

Periapsis: 1480.997 km

RAAN: 110.6563 deg

Eccentricy: 0.0017169

Argument of periapsis: 205.74 deg

Mean anomaly: 154.2827 deg

Mean motion: 12.42857775 rev/day

Mean motion (dot): 0.00000002 rev/day2

B* drag term: -0.000058814 1/REarth

Two-line elements (TLE)

Creation date: May 12, 2025, 11:06 p.m.

Reference frame: TEME

Reference center: EARTH

Epoch: May 12, 2025, 8:55 p.m. UTC

TLE line 0: 0 COSMOS 2532

TLE line 1: 1 43753U 18097C 25132.87218563 .00000002 00000-0 -58814-4 0 9993

TLE line 2: 2 43753 82.5100 110.6563 0017169 205.7400 154.2827 12.42857775292655

Live tracking on map

Real-time ground track for satellite COSMOS 2532.

In-orbit conjunctions

There are no conjunctions computed for COSMOS 2532, at the moment. Check back to stay up to date, as we update our databases every day.

Go to all conjunctions

Associated space launch

Rodnik is a series of military communications satellites.

COSMOS 2532 was lifted into orbit during the mission ‘Rokot / Briz-KM | 3 x Rodnik (Kosmos 2530, 2531, 2532)’, on board a Rokot/Briz-KM space rocket.

The launch took place on Nov. 30, 2018, 2:27 a.m. from 133/3 (133L).

For more information about the launch, click the button.

Launch to space Rokot / Briz-KM | 3 x Rodnik (Kosmos 2530, 2531, 2532)
Rokot / Briz-KM | 3 x Rodnik (Kosmos 2530, 2531, 2532)

Agency: N/A

Status: Launch Successful

Launch date: Nov. 30, 2018, 2:27 a.m. UTC

Rocket: Rokot/Briz-KM

Launch pad: 133/3 (133L)

Location: Plesetsk Cosmodrome, Russian Federation

...

Latest news about this satellite

There are no fresh news available about this satellite. Check back as we update our databases every day.


Newsletter sign-up

Weekly statistics, charts and insights to help you stay on top of the space industry.